[TLELIST] Archives

 

[list_settings.list_name] Current TLEs

February 27th 2011 PST

HST 1 20580U 90037B 11055.10470320 .00000915 00000-0 56921-4 0 7173 2 20580 028.4713 035.0381 0002994 359.4486 000.6204 15.01175986942645 ISS (ZARYA) 1 25544U 98067A 11057.90894868 .00000968 00000-0 11635-4 0 9067 2 25544 051.6469 006.4823 0004066 022.0296 081.6016 15.72505096703544 CXO 1 25867U 99040B 11057.91666667 -.00000514 00000-0 00000+0 0 5762 2 25867 068.6117 038.8977 8510580 276.1444 358.6637 00.37807171 7353 ____________________________________________________________________ These 2-Line ...Continue Reading

[list_settings.list_name] Current TLEs

February 27th 2011 PST

HST 1 20580U 90037B 11055.10470320 .00000915 00000-0 56921-4 0 7173 2 20580 028.4713 035.0381 0002994 359.4486 000.6204 15.01175986942645 ISS (ZARYA) 1 25544U 98067A 11057.08356198 -.00004481 00000-0 -28331-4 0 9028 2 25544 051.6442 010.7066 0004616 014.2039 093.7347 15.72462838703414 CXO 1 25867U 99040B 11057.91666667 -.00000514 00000-0 00000+0 0 5762 2 25867 068.6117 038.8977 8510580 276.1444 358.6637 00.37807171 7353 ____________________________________________________________________ These 2-Line ...Continue Reading

[list_settings.list_name] Current TLEs

February 26th 2011 PST

HST 1 20580U 90037B 11055.10470320 .00000915 00000-0 56921-4 0 7173 2 20580 028.4713 035.0381 0002994 359.4486 000.6204 15.01175986942645 ISS (ZARYA) 1 25544U 98067A 11056.21068287 .00017103 00000-0 12814-3 0 8975 2 25544 051.6457 015.1705 0004348 356.3919 206.6920 15.72762958703270 CXO 1 25867U 99040B 11057.91666667 -.00000514 00000-0 00000+0 0 5762 2 25867 068.6117 038.8977 8510580 276.1444 358.6637 00.37807171 7353 ____________________________________________________________________ These 2-Line ...Continue Reading

[list_settings.list_name] Current TLEs

February 25th 2011 PST

HST 1 20580U 90037B 11055.10470320 .00000915 00000-0 56921-4 0 7173 2 20580 028.4713 035.0381 0002994 359.4486 000.6204 15.01175986942645 ISS (ZARYA) 1 25544U 98067A 11055.24694350 .00016016 00000-0 12048-3 0 8884 2 25544 051.6469 020.1127 0004366 353.0424 149.7842 15.72726300703127 CXO 1 25867U 99040B 11055.25000000 -.00000605 00000-0 00000+0 0 5750 2 25867 068.5944 039.0746 8507257 276.1085 355.7080 00.37812947 7341 ____________________________________________________________________ These 2-Line ...Continue Reading

[list_settings.list_name] Current TLEs

February 24th 2011 PST

HST 1 20580U 90037B 11052.24589929 .00000889 00000-0 54917-4 0 7163 2 20580 028.4708 053.7094 0003030 327.4252 032.6206 15.01171453942210 ISS (ZARYA) 1 25544U 98067A 11054.42128774 .00019544 00000-0 14608-3 0 8822 2 25544 051.6465 024.3420 0004247 348.9423 156.0856 15.72708646702998 CXO 1 25867U 99040B 11055.25000000 -.00000605 00000-0 00000+0 0 5750 2 25867 068.5944 039.0746 8507257 276.1085 355.7080 00.37812947 7341 ____________________________________________________________________ These 2-Line ...Continue Reading

[list_settings.list_name] Current TLEs

February 23rd 2011 PST

HST 1 20580U 90037B 11047.25959679 .00000739 00000-0 43533-4 0 7145 2 20580 028.4706 086.2685 0003142 268.8718 091.1605 15.01163754941468 ISS (ZARYA) 1 25544U 98067A 11050.08785363 .00020993 00000-0 15778-3 0 8530 2 25544 051.6448 046.5484 0004562 330.5849 104.4525 15.72523128702310 CXO 1 25867U 99040B 11049.95833333 -.00000284 00000-0 00000+0 0 5734 2 25867 068.5529 039.3517 8495641 276.1181 355.2544 00.37806868 7322 ____________________________________________________________________ These 2-Line ...Continue Reading

[list_settings.list_name] Current TLEs

February 19th 2011 PST

HST 1 20580U 90037B 11047.25959679 .00000739 00000-0 43533-4 0 7145 2 20580 028.4706 086.2685 0003142 268.8718 091.1605 15.01163754941468 ISS (ZARYA) 1 25544U 98067A 11049.40099297 .00019941 00000-0 15032-3 0 8486 2 25544 051.6453 050.0683 0004472 328.1886 175.8922 15.72491977702208 CXO 1 25867U 99040B 11049.95833333 -.00000284 00000-0 00000+0 0 5734 2 25867 068.5529 039.3517 8495641 276.1181 355.2544 00.37806868 7322 ____________________________________________________________________ These 2-Line ...Continue Reading

[list_settings.list_name] Current TLEs

February 18th 2011 PST

HST 1 20580U 90037B 11047.25959679 .00000739 00000-0 43533-4 0 7145 2 20580 028.4706 086.2685 0003142 268.8718 091.1605 15.01163754941468 ISS (ZARYA) 1 25544U 98067A 11048.24298670 .00005116 00000-0 42118-4 0 8398 2 25544 051.6461 056.0061 0005002 323.2574 101.0550 15.72431937702021 CXO 1 25867U 99040B 11047.33333333 -.00000358 00000-0 00000+0 0 5720 2 25867 068.5226 039.6037 8494214 276.0813 357.8164 00.37810476 7317 ____________________________________________________________________ These 2-Line ...Continue Reading

[list_settings.list_name] Current TLEs

February 17th 2011 PST

HST 1 20580U 90037B 11047.25959679 .00000739 00000-0 43533-4 0 7145 2 20580 028.4706 086.2685 0003142 268.8718 091.1605 15.01163754941468 ISS (ZARYA) 1 25544U 98067A 11047.23222693 .00016361 00000-0 12438-3 0 8337 2 25544 051.6459 061.1775 0004378 316.6128 142.1540 15.72456591701862 CXO 1 25867U 99040B 11047.33333333 -.00000358 00000-0 00000+0 0 5720 2 25867 068.5226 039.6037 8494214 276.0813 357.8164 00.37810476 7317 ____________________________________________________________________ These 2-Line ...Continue Reading

[list_settings.list_name] Current TLEs

February 16th 2011 PST

HST 1 20580U 90037B 11044.60022698 .00000634 00000-0 35542-4 0 7137 2 20580 028.4699 103.6369 0003389 241.1080 118.9215 15.01160317941064 ISS (ZARYA) 1 25544U 98067A 11046.34816256 .00016740 00000-0 12733-3 0 8285 2 25544 051.6450 065.7101 0004375 315.4947 175.3841 15.72423976701727 CXO 1 25867U 99040B 11044.66666667 -.00000496 00000-0 00000+0 0 5714 2 25867 068.5080 039.8278 8488541 276.0643 354.6898 00.37801485 7309 ____________________________________________________________________ These 2-Line ...Continue Reading
  • This mailing list is a public mailing list - anyone may join or leave, at any time.
  • This mailing list is announce-only.

International Space Station (ISS) / Hubble Space Telescope (HST) / Chandra X-Ray Observatory Orbital Data via EMAIL

Privacy Policy:

Private list